Location: Austin
(30.3000°N, 97.7500°W)
Time: 01:37:29
(UTC-05:00)

Cosmos 1821 Rocket - Pass Details

Date: 01 August 2025
Orbit: 944 x 1004 km, 82.9° (Epoch: 10 June)

Event Time Altitude Azimuth Distance (km) Brightness Sun altitude
Exits shadow 03:49:31 72° 38° (NE) 1,026 4.1 -32.3°
Drops below altitude 10° 03:55:11 10° 8° (N) 2,745 7.0 -31.5°
Sets 03:57:44 0° 8° (N) 3,705 7.8 -31.1°
